[[{"header":{"parameterUnit":"m.s-1","parameterCategory":1,"la1":30.2991,"la2":30.254,"lo1":-89.0895,"lo2":-89.0444,"dy":0.0017,"dx":0.0017,"nx":28,"ny":28,"refTime":"2024-08-09T15:00:00:Z","depth":0,"parameterNumber":2,"parameterNumberName":"U-component_of_WINDS"},"data":[0,0,0,0,0,0,0,0,0,0,0,0,0,0,0,0,0,0,0,0,0,0,0,0,0,0,0,0,0,0,0,0,0,0,0,0,0,0,0,0,0,0,0,0,0,0,0,0,0,0,0,0,0,0,0,0,0,0,-1.635,-1.6349,0,-1.6303,-1.6302,-1.6302,-1.6237,-1.6236,-1.6235,-1.6234,-1.6185,-1.6185,-1.6185,0,0,0,0,0,0,0,0,0,0,0,0,0,-1.6383,-1.6383,-1.635,-1.6349,-1.6349,-1.6303,-1.6302,-1.6302,-1.6237,-1.6236,-1.6234,-1.6233,-1.6185,-1.6185,-1.6185,0,0,0,0,0,0,0,0,0,0,0,0,0,-1.6356,-1.6383,-1.635,-1.6311,-1.6307,-1.6303,-1.6302,-1.6302,-1.6237,-1.6236,-1.6234,-1.6232,-1.6185,-1.6185,-1.6185,-1.6215,0,0,-1.6184,-1.6183,0,0,0,0,0,0,0,0,-1.6357,-1.6355,-1.6317,-1.6313,-1.6309,-1.6274,-1.6296,-1.6273,-1.6238,-1.6264,-1.6233,-1.6232,-1.6216,-1.6213,-1.6208,-1.6213,-1.6211,-1.6184,-1.6183,-1.6183,-1.6183,0,0,0,0,0,0,0,-1.6359,-1.6356,-1.6331,-1.6317,-1.6312,-1.6296,-1.629,-1.6292,-1.625,-1.6261,-1.6256,-1.6252,-1.6214,-1.6209,-1.6206,-1.621,-1.6184,-1.6183,-1.6183,-1.6183,-1.6239,-1.624,0,0,0,0,0,0,-1.6367,-1.6358,-1.6333,-1.633,-1.633,-1.6296,-1.629,-1.6287,-1.625,-1.6242,-1.6253,-1.6249,-1.621,-1.6207,-1.6204,-1.6238,-1.6183,-1.6183,-1.6183,-1.6237,-1.6239,-1.6241,0,0,0,0,0,0,-1.6368,-1.6365,-1.6335,-1.6343,-1.6338,-1.6298,-1.6295,-1.6287,-1.6282,-1.6243,-1.6236,-1.6256,-1.6209,-1.6205,-1.6213,-1.6235,-1.6183,-1.6182,-1.6235,-1.6238,-1.624,-1.6305,0,0,0,0,0,0,-1.6369,-1.6366,-1.6377,-1.6343,-1.6337,-1.6344,-1.6296,-1.6287,-1.6281,-1.6275,-1.6244,-1.6237,-1.6207,-1.6214,-1.6213,-1.6234,-1.6182,-1.6233,-1.6236,-1.6239,-1.63,-1.6309,-1.6317,0,0,0,0,0,-1.6371,-1.6397,-1.6378,-1.6375,-1.6351,-1.6346,-1.6342,-1.6307,-1.6283,-1.6294,-1.627,-1.6238,-1.6233,-1.6216,-1.6214,-1.6235,-1.6231,-1.6235,-1.6239,-1.6297,-1.6308,-1.6317,0,0,0,0,0,0,-1.6435,-1.6392,-1.637,-1.6387,-1.6371,-1.6335,-1.6347,-1.632,-1.6309,-1.6304,-1.6261,-1.6255,-1.6268,-1.6252,-1.6233,-1.6262,-1.6227,-1.6231,-1.6272,-1.6282,-1.629,-1.6293,-1.6182,0,0,0,0,0,-1.6451,-1.645,-1.6413,-1.6432,-1.6424,-1.6388,-1.6384,-1.6359,-1.634,-1.6332,-1.6309,-1.6291,-1.6286,-1.6283,-1.6276,-1.6298,-1.629,-1.6312,-1.632,-1.6327,-1.633,-1.634,-1.6349,-1.6253,-1.6253,-1.6253,0,0,-1.6484,-1.6461,-1.6463,-1.6444,-1.6428,-1.6429,-1.6382,-1.6385,-1.6384,-1.6333,-1.6339,-1.6321,-1.6299,-1.6315,-1.632,-1.6302,-1.6355,-1.6332,-1.6337,-1.6337,-1.6345,-1.6354,-1.6363,-1.6256,-1.6256,-1.6255,0,0,-1.6544,-1.6527,-1.654,-1.6525,-1.6502,-1.6477,-1.6481,-1.6449,-1.6436,-1.6441,-1.6403,-1.6402,-1.6394,-1.6379,-1.6371,-1.6427,-1.6398,-1.6426,-1.6468,-1.6479,-1.6487,-1.6493,-1.6513,-1.652,-1.643,-1.643,-1.643,0,-1.6588,-1.6587,-1.655,-1.6555,-1.6548,-1.6502,-1.6514,-1.6502,-1.6478,-1.6474,-1.6454,-1.6442,-1.6424,-1.6436,-1.645,-1.6445,-1.6447,-1.6429,-1.6489,-1.6495,-1.65,-1.6518,-1.6526,-1.6434,-1.6433,-1.6433,-1.6433,0,-1.6642,-1.6642,-1.6656,-1.6634,-1.6628,-1.6637,-1.6601,-1.66,-1.6576,-1.6554,-1.656,-1.6537,-1.6525,-1.6526,-1.6502,-1.6534,-1.6523,-1.6497,-1.646,-1.6514,-1.653,-1.6537,-1.6439,-1.6438,-1.6437,-1.6436,0,0,-1.674,-1.6698,-1.6703,-1.6693,-1.6665,-1.6664,-1.6671,-1.6659,-1.6659,-1.6644,-1.6649,-1.6643,-1.6619,-1.661,-1.6584,-1.6593,-1.6639,-1.6565,-1.6564,-1.6579,-1.6672,-1.6692,-1.6701,-1.662,-1.6621,-1.6622,-1.6674,0,-1.6794,-1.6804,-1.6771,-1.6789,-1.6789,-1.6745,-1.6752,-1.6735,-1.6715,-1.6712,-1.6689,-1.6686,-1.6654,-1.6648,-1.6656,-1.6632,-1.6657,-1.6628,-1.6623,-1.6623,-1.6629,-1.6709,-1.6729,-1.678,-1.668,-1.6681,-1.6682,0,-1.6858,-1.6847,-1.6865,-1.6836,-1.6834,-1.6841,-1.6827,-1.6825,-1.6805,-1.679,-1.678,-1.6751,-1.6756,-1.6722,-1.6728,-1.6709,-1.6706,-1.6694,-1.6695,-1.6692,-1.6655,-1.6708,-1.6795,-1.6803,-1.6692,-1.6691,-1.669,0,-1.6927,-1.6916,-1.6926,-1.6918,-1.6885,-1.689,-1.6877,-1.6855,-1.685,-1.6839,-1.6835,-1.6825,-1.6818,-1.6811,-1.6779,-1.6758,-1.6789,-1.6753,-1.6776,-1.6777,-1.6783,-1.6783,-1.6871,-1.6783,-1.6783,-1.6783,-1.6783,0,-1.699,-1.7002,-1.6956,-1.6962,-1.6975,-1.6938,-1.6952,-1.6934,-1.6916,-1.6917,-1.6879,-1.6882,-1.684,-1.6838,-1.6813,-1.6822,-1.682,-1.6807,-1.68,-1.681,-1.6811,-1.6806,-1.6801,-1.6785,-1.6784,-1.6784,-1.6784,0,-1.7068,-1.7038,-1.7045,-1.7013,-1.7005,-1.7016,-1.6989,-1.6993,-1.6971,-1.6973,-1.6972,-1.6937,-1.6933,-1.6901,-1.6889,-1.6872,-1.689,-1.6876,-1.6896,-1.6891,-1.6916,-1.6914,-1.7002,-1.7012,-1.692,-1.692,-1.6921,0,-1.7109,-1.7118,-1.7088,-1.7086,-1.7074,-1.7072,-1.7067,-1.7031,-1.7027,-1.7006,-1.7013,-1.7006,-1.6997,-1.6992,-1.6966,-1.6956,-1.6942,-1.6974,-1.694,-1.695,-1.6941,-1.6941,-1.6941,-1.698,-1.6982,-1.6983,-1.6983,0,-1.7186,-1.7171,-1.7165,-1.7155,-1.715,-1.7139,-1.7127,-1.7128,-1.7088,-1.7086,-1.7081,-1.7075,-1.7063,-1.7056,-1.7042,-1.7028,-1.6999,-1.6995,-1.6999,-1.7008,-1.7019,-1.7013,-1.6915,-1.6992,-1.6991,-1.6991,-1.699,-1.699,-1.7247,-1.7252,-1.7232,-1.7227,-1.7214,-1.7203,-1.7205,-1.7184,-1.7179,-1.7167,-1.7146,-1.7144,-1.7125,-1.7104,-1.7092,-1.709,-1.7073,-1.708,-1.7082,-1.7084,-1.7088,-1.7021,-1.7087,-1.7087,-1.7087,-1.7087,-1.7086,0,-1.7321,-1.7306,-1.7301,-1.7285,-1.7281,-1.7256,-1.724,-1.7239,-1.7238,-1.7222,-1.7215,-1.721,-1.7203,-1.7177,-1.7167,-1.717,-1.7157,-1.7169,-1.7168,-1.7165,-1.7104,-1.7101,-1.718,-1.718,-1.718,-1.718,-1.718,-1.718,-1.7358,-1.7367,-1.735,-1.7351,-1.7336,-1.7334,-1.7327,-1.7318,-1.7305,-1.7301,-1.7295,-1.7278,-1.7258,-1.7247,-1.724,-1.7232,-1.723,-1.7246,-1.7234,-1.7178,-1.7169,-1.716,-1.7157,-1.7247,-1.7247,-1.7295,-1.7295,-1.7295]},{"header":{"parameterUnit":"m.s-1","parameterCategory":1,"la1":30.2991,"la2":30.254,"lo1":-89.0895,"lo2":-89.0444,"dy":0.0017,"dx":0.0017,"nx":28,"ny":28,"refTime":"2024-08-09T15:00:00:Z","depth":0,"parameterNumber":3,"parameterNumberName":"V-component_of_WINDS"},"data":[0,0,0,0,0,0,0,0,0,0,0,0,0,0,0,0,0,0,0,0,0,0,0,0,0,0,0,0,0,0,0,0,0,0,0,0,0,0,0,0,0,0,0,0,0,0,0,0,0,0,0,0,0,0,0,0,0,0,-1.0863,-1.0863,0,-1.0894,-1.0895,-1.0895,-1.0891,-1.089,-1.089,-1.0889,-1.092,-1.0921,-1.0923,0,0,0,0,0,0,0,0,0,0,0,0,0,-1.0796,-1.0797,-1.0863,-1.0863,-1.0863,-1.0894,-1.0895,-1.0895,-1.0891,-1.089,-1.0889,-1.0889,-1.092,-1.0921,-1.0923,0,0,0,0,0,0,0,0,0,0,0,0,0,-1.0826,-1.0798,-1.0862,-1.0865,-1.0865,-1.0894,-1.0895,-1.0895,-1.0891,-1.089,-1.0889,-1.0889,-1.0919,-1.0921,-1.0923,-1.0951,0,0,-1.0929,-1.093,0,0,0,0,0,0,0,0,-1.0824,-1.0828,-1.0864,-1.0865,-1.0865,-1.0888,-1.0882,-1.0914,-1.0891,-1.0881,-1.0889,-1.0888,-1.091,-1.0912,-1.092,-1.0952,-1.0953,-1.0929,-1.093,-1.0931,-1.0932,0,0,0,0,0,0,0,-1.0822,-1.0827,-1.0875,-1.0865,-1.0865,-1.0864,-1.0867,-1.0888,-1.0899,-1.0882,-1.0882,-1.0886,-1.091,-1.0918,-1.0921,-1.0954,-1.0929,-1.0931,-1.0932,-1.0933,-1.101,-1.1011,0,0,0,0,0,0,-1.082,-1.0825,-1.0874,-1.0876,-1.0843,-1.0866,-1.0869,-1.0881,-1.0899,-1.0901,-1.0886,-1.0885,-1.0915,-1.0918,-1.0922,-1.0956,-1.0931,-1.0933,-1.0934,-1.1009,-1.101,-1.1011,0,0,0,0,0,0,-1.0818,-1.0824,-1.0873,-1.0851,-1.0857,-1.0868,-1.0881,-1.0882,-1.0891,-1.0902,-1.0904,-1.0893,-1.0915,-1.0919,-1.0944,-1.0957,-1.0934,-1.0936,-1.1008,-1.1009,-1.101,-1.1024,0,0,0,0,0,0,-1.0816,-1.0824,-1.0835,-1.0851,-1.0858,-1.0895,-1.0882,-1.0884,-1.0894,-1.0893,-1.0909,-1.0911,-1.0914,-1.0941,-1.0945,-1.0959,-1.0937,-1.1007,-1.1008,-1.101,-1.1022,-1.1025,-1.1028,0,0,0,0,0,-1.0814,-1.0837,-1.0836,-1.0842,-1.0872,-1.0896,-1.0899,-1.0904,-1.0895,-1.0906,-1.0914,-1.091,-1.0954,-1.0943,-1.0949,-1.0963,-1.1006,-1.1008,-1.101,-1.1021,-1.1025,-1.1028,0,0,0,0,0,0,-1.0822,-1.0839,-1.0838,-1.0867,-1.088,-1.0895,-1.0909,-1.0907,-1.0923,-1.0921,-1.0925,-1.0928,-1.0953,-1.096,-1.0948,-1.099,-1.0979,-1.0982,-1.0985,-1.0989,-1.0992,-1.099,-1.0939,0,0,0,0,0,-1.0827,-1.0845,-1.0859,-1.0883,-1.089,-1.0898,-1.0909,-1.091,-1.0924,-1.0929,-1.0938,-1.0951,-1.0967,-1.0978,-1.0994,-1.1022,-1.1026,-1.1035,-1.1038,-1.104,-1.1043,-1.1058,-1.1063,-1.1017,-1.1017,-1.1017,0,0,-1.0838,-1.085,-1.0861,-1.0885,-1.0896,-1.0914,-1.0903,-1.0923,-1.0936,-1.0932,-1.0956,-1.0963,-1.0977,-1.1004,-1.1016,-1.101,-1.1056,-1.1043,-1.1044,-1.1046,-1.1061,-1.1065,-1.1069,-1.1019,-1.1018,-1.1018,0,0,-1.0868,-1.0878,-1.09,-1.091,-1.0926,-1.0931,-1.0936,-1.0951,-1.0956,-1.098,-1.0977,-1.0992,-1.1021,-1.1031,-1.104,-1.1072,-1.1069,-1.1077,-1.1093,-1.1107,-1.1111,-1.1114,-1.1126,-1.113,-1.108,-1.108,-1.108,0,-1.0879,-1.0907,-1.0911,-1.0931,-1.0941,-1.0938,-1.096,-1.0969,-1.0989,-1.0996,-1.099,-1.1025,-1.1035,-1.1064,-1.1071,-1.1078,-1.1084,-1.1076,-1.111,-1.1114,-1.1117,-1.1128,-1.1132,-1.108,-1.108,-1.108,-1.108,0,-1.0921,-1.094,-1.0955,-1.0975,-1.0987,-1.1007,-1.1013,-1.1025,-1.1025,-1.1031,-1.1055,-1.1066,-1.1084,-1.109,-1.1091,-1.1119,-1.1115,-1.1109,-1.1098,-1.1122,-1.1132,-1.1137,-1.1082,-1.1081,-1.1081,-1.1081,0,0,-1.0958,-1.0978,-1.0984,-1.0993,-1.1009,-1.1024,-1.1044,-1.1062,-1.1072,-1.1085,-1.1101,-1.1125,-1.112,-1.113,-1.1131,-1.1144,-1.1169,-1.1136,-1.1137,-1.1142,-1.1201,-1.1206,-1.1211,-1.1166,-1.1167,-1.1168,-1.12,0,-1.0989,-1.1025,-1.1029,-1.1061,-1.1078,-1.1075,-1.1092,-1.1104,-1.1109,-1.1124,-1.113,-1.1147,-1.1138,-1.1144,-1.1156,-1.1163,-1.1181,-1.1161,-1.1182,-1.1183,-1.118,-1.1216,-1.1222,-1.1251,-1.1204,-1.1204,-1.1205,0,-1.1031,-1.1046,-1.108,-1.1094,-1.1102,-1.1117,-1.1134,-1.1148,-1.1161,-1.1164,-1.1174,-1.1174,-1.1193,-1.118,-1.1207,-1.1193,-1.1202,-1.1206,-1.1207,-1.121,-1.1196,-1.1221,-1.1261,-1.1266,-1.1211,-1.1211,-1.121,0,-1.1056,-1.1084,-1.1108,-1.1116,-1.1132,-1.1143,-1.115,-1.1162,-1.1173,-1.1186,-1.1193,-1.1209,-1.1218,-1.1229,-1.1233,-1.1223,-1.1259,-1.1247,-1.1262,-1.1262,-1.1271,-1.1271,-1.1314,-1.1275,-1.1275,-1.1275,-1.1275,0,-1.1091,-1.1112,-1.1119,-1.1134,-1.1158,-1.116,-1.1183,-1.1189,-1.12,-1.1215,-1.1213,-1.1227,-1.123,-1.1245,-1.1247,-1.1269,-1.1273,-1.1276,-1.1276,-1.1277,-1.1276,-1.1283,-1.1282,-1.1276,-1.1276,-1.1276,-1.1275,0,-1.1123,-1.1129,-1.1155,-1.1168,-1.1172,-1.1188,-1.1199,-1.1213,-1.1218,-1.1237,-1.1242,-1.1249,-1.1266,-1.127,-1.1291,-1.1292,-1.1318,-1.1316,-1.1315,-1.1315,-1.1331,-1.1329,-1.138,-1.1387,-1.1343,-1.1343,-1.1344,0,-1.1146,-1.1163,-1.1177,-1.1188,-1.1196,-1.1213,-1.1223,-1.1226,-1.1237,-1.1252,-1.1264,-1.1281,-1.1295,-1.1322,-1.1329,-1.1344,-1.1343,-1.136,-1.1345,-1.1345,-1.1344,-1.1344,-1.1345,-1.1363,-1.1363,-1.1364,-1.1364,0,-1.1187,-1.1188,-1.1204,-1.1221,-1.1234,-1.1247,-1.1259,-1.1267,-1.1271,-1.1284,-1.1302,-1.1312,-1.1333,-1.135,-1.1365,-1.1372,-1.1369,-1.1368,-1.1373,-1.1374,-1.1373,-1.1374,-1.1323,-1.1368,-1.1367,-1.1367,-1.1367,-1.1367,-1.1216,-1.123,-1.1243,-1.126,-1.1269,-1.1281,-1.1295,-1.1301,-1.1316,-1.1333,-1.1333,-1.1353,-1.1364,-1.1384,-1.1391,-1.1406,-1.1401,-1.1407,-1.1409,-1.1411,-1.1413,-1.1369,-1.1409,-1.1409,-1.1409,-1.1408,-1.1408,0,-1.1257,-1.1264,-1.128,-1.1298,-1.1311,-1.1307,-1.132,-1.1331,-1.1349,-1.136,-1.1373,-1.1393,-1.1409,-1.1417,-1.1432,-1.1443,-1.1442,-1.1447,-1.1447,-1.1448,-1.1416,-1.1411,-1.1447,-1.1447,-1.1447,-1.1447,-1.1447,-1.1447,-1.128,-1.1304,-1.1307,-1.1335,-1.1342,-1.1362,-1.137,-1.138,-1.1388,-1.1411,-1.1425,-1.1429,-1.1439,-1.1455,-1.1469,-1.147,-1.1477,-1.1483,-1.1484,-1.1454,-1.145,-1.1447,-1.1442,-1.1484,-1.1484,-1.1514,-1.1515,-1.1515]}]]